When you browse on this site, cookies collect data to enhance your experience and personalize the content and advertising you see.
Visit our Privacy Policy to learn more. By continuing to use the site, you agree to this use of cookies and data.
  • In Czech Republic
  • List of Countries
  • For 7 days
  • Water Temperature
  • Weather Map
  • Weather Widgets
  • user-avatar
    Login

    Hourly Weather Lubana

    Today, 3 April, Friday

    Time Temperature Precipitation Wind Pressure Humidity
    00:00 +2°C° 0 mm 7 mps 736 mmHg 74%
    01:00 +1°C° 0 mm 8 mps 736 mmHg 76%
    02:00 +1°C° 0 mm 8 mps 735 mmHg 78%
    03:00 +1°C° 0.1 mm 8 mps 734 mmHg 80%
    04:00 +1°C° 0.1 mm 8 mps 734 mmHg 82%
    05:00 0°C° 0.1 mm 8 mps 733 mmHg 84%
    06:00 0°C° 0.5 mm 8 mps 733 mmHg 82%
    07:00 0°C° 0.5 mm 8 mps 734 mmHg 79%
    08:00 0°C° 0.5 mm 8 mps 734 mmHg 77%
    09:00 +1°C° 0.2 mm 8 mps 734 mmHg 72%
    10:00 +2°C° 0.2 mm 9 mps 734 mmHg 68%
    11:00 +2°C° 0.2 mm 9 mps 734 mmHg 63%
    12:00 +3°C° 0.1 mm 9 mps 735 mmHg 57%
    13:00 +5°C° 0.1 mm 9 mps 736 mmHg 50%
    14:00 +6°C° 0.1 mm 8 mps 736 mmHg 43%
    15:00 +5°C° 0 mm 8 mps 737 mmHg 42%
    16:00 +5°C° 0 mm 7 mps 738 mmHg 42%
    17:00 +4°C° 0 mm 7 mps 739 mmHg 42%
    18:00 +3°C° 0 mm 6 mps 739 mmHg 47%
    19:00 +1°C° 0 mm 4 mps 740 mmHg 52%
    20:00 +1°C° 0 mm 3 mps 741 mmHg 57%
    21:00 0°C° 0 mm 3 mps 742 mmHg 59%
    22:00 0°C° 0 mm 3 mps 742 mmHg 62%
    23:00 -1°C° 0 mm 3 mps 743 mmHg 64%

    Tomorrow, 4 April, Saturday

    Time Temperature Precipitation Wind Pressure Humidity
    00:00 -1°C° 0 mm 3 mps 744 mmHg 67%
    01:00 -1°C° 0 mm 3 mps 744 mmHg 69%
    02:00 -1°C° 0 mm 3 mps 745 mmHg 71%
    03:00 -1°C° 0 mm 3 mps 746 mmHg 73%
    04:00 -1°C° 0 mm 2 mps 746 mmHg 75%
    05:00 -1°C° 0 mm 2 mps 747 mmHg 76%
    06:00 0°C° 0 mm 3 mps 748 mmHg 70%
    07:00 +1°C° 0 mm 3 mps 748 mmHg 64%
    08:00 +2°C° 0 mm 3 mps 749 mmHg 58%
    09:00 +3°C° 0 mm 4 mps 750 mmHg 51%
    10:00 +4°C° 0 mm 4 mps 750 mmHg 44%
    11:00 +6°C° 0 mm 5 mps 751 mmHg 36%
    12:00 +6°C° 0.1 mm 5 mps 751 mmHg 37%
    13:00 +6°C° 0.1 mm 4 mps 751 mmHg 38%
    14:00 +6°C° 0.1 mm 4 mps 752 mmHg 38%
    15:00 +5°C° 0.1 mm 4 mps 752 mmHg 43%
    16:00 +5°C° 0.1 mm 4 mps 753 mmHg 48%
    17:00 +4°C° 0.1 mm 4 mps 753 mmHg 53%
    18:00 +3°C° 0 mm 4 mps 754 mmHg 56%
    19:00 +2°C° 0 mm 3 mps 755 mmHg 60%
    20:00 0°C° 0 mm 3 mps 755 mmHg 63%
    21:00 +1°C° 0 mm 2 mps 756 mmHg 66%
    22:00 -1°C° 0 mm 2 mps 757 mmHg 70%
    23:00 -1°C° 0 mm 2 mps 758 mmHg 73%

    Day after tomorrow, 5 April, Sunday

    Time Temperature Precipitation Wind Pressure Humidity
    00:00 -1°C° 0 mm 2 mps 759 mmHg 74%
    01:00 -2°C° 0 mm 2 mps 759 mmHg 75%
    02:00 -2°C° 0 mm 3 mps 760 mmHg 76%
    03:00 -2°C° 0 mm 2 mps 761 mmHg 73%
    04:00 -2°C° 0 mm 2 mps 761 mmHg 71%
    05:00 -2°C° 0 mm 2 mps 762 mmHg 69%
    06:00 -1°C° 0 mm 3 mps 763 mmHg 61%
    07:00 -1°C° 0 mm 4 mps 763 mmHg 52%
    08:00 0°C° 0 mm 4 mps 764 mmHg 44%
    09:00 +3°C° 0 mm 4 mps 765 mmHg 39%
    10:00 +4°C° 0 mm 4 mps 765 mmHg 34%
    11:00 +5°C° 0 mm 4 mps 765 mmHg 30%
    12:00 +5°C° 0 mm 4 mps 766 mmHg 30%
    13:00 +6°C° 0 mm 4 mps 766 mmHg 30%
    14:00 +6°C° 0 mm 4 mps 766 mmHg 30%
    15:00 +6°C° 0 mm 4 mps 766 mmHg 32%
    16:00 +6°C° 0 mm 4 mps 766 mmHg 34%
    17:00 +7°C° 0 mm 3 mps 766 mmHg 36%
    18:00 +5°C° 0 mm 2 mps 766 mmHg 42%
    19:00 +3°C° 0 mm 2 mps 766 mmHg 48%
    20:00 +3°C° 0 mm 1 mps 767 mmHg 55%
    21:00 +2°C° 0 mm 1 mps 767 mmHg 57%
    22:00 +2°C° 0 mm 1 mps 767 mmHg 60%
    23:00 +2°C° 0 mm 1 mps 767 mmHg 62%

    6 April, Monday

    Time Temperature Precipitation Wind Pressure Humidity
    00:00 +1°C° 0 mm 2 mps 767 mmHg 65%
    01:00 -1°C° 0 mm 2 mps 767 mmHg 67%
    02:00 -1°C° 0 mm 2 mps 767 mmHg 70%
    03:00 -1°C° 0 mm 2 mps 767 mmHg 71%
    04:00 -1°C° 0 mm 2 mps 767 mmHg 73%
    05:00 -1°C° 0 mm 2 mps 767 mmHg 75%
    06:00 +1°C° 0 mm 2 mps 767 mmHg 70%
    07:00 +2°C° 0 mm 3 mps 767 mmHg 65%
    08:00 +3°C° 0 mm 3 mps 768 mmHg 61%
    09:00 +5°C° 0 mm 3 mps 767 mmHg 55%
    10:00 +8°C° 0 mm 3 mps 767 mmHg 50%
    11:00 +10°C° 0 mm 3 mps 767 mmHg 45%
    12:00 +10°C° 0 mm 4 mps 767 mmHg 43%
    13:00 +11°C° 0 mm 4 mps 767 mmHg 42%
    14:00 +12°C° 0 mm 4 mps 767 mmHg 40%
    15:00 +11°C° 0 mm 4 mps 766 mmHg 42%
    16:00 +11°C° 0 mm 4 mps 766 mmHg 44%
    17:00 +11°C° 0 mm 3 mps 765 mmHg 46%
    18:00 +9°C° 0 mm 3 mps 765 mmHg 52%
    19:00 +8°C° 0 mm 3 mps 765 mmHg 59%
    20:00 +6°C° 0 mm 2 mps 765 mmHg 66%
    21:00 +6°C° 0 mm 2 mps 765 mmHg 67%
    22:00 +4°C° 0 mm 3 mps 765 mmHg 67%
    23:00 +4°C° 0 mm 3 mps 765 mmHg 68%

    7 April, Tuesday

    Time Temperature Precipitation Wind Pressure Humidity
    00:00 +3°C° 0 mm 3 mps 764 mmHg 69%
    01:00 +3°C° 0 mm 3 mps 764 mmHg 71%
    02:00 +3°C° 0 mm 3 mps 764 mmHg 72%
    03:00 +2°C° 0 mm 3 mps 764 mmHg 75%
    04:00 +2°C° 0 mm 3 mps 763 mmHg 77%
    05:00 +2°C° 0 mm 3 mps 763 mmHg 79%
    06:00 +3°C° 0 mm 3 mps 763 mmHg 75%
    07:00 +4°C° 0 mm 3 mps 762 mmHg 71%
    08:00 +5°C° 0 mm 4 mps 762 mmHg 67%
    09:00 +7°C° 0 mm 4 mps 761 mmHg 63%
    10:00 +10°C° 0 mm 4 mps 761 mmHg 59%
    11:00 +13°C° 0 mm 5 mps 760 mmHg 55%
    12:00 +14°C° 0 mm 5 mps 760 mmHg 54%
    13:00 +15°C° 0 mm 5 mps 760 mmHg 52%
    14:00 +16°C° 0 mm 6 mps 760 mmHg 51%
    15:00 +15°C° 0.1 mm 5 mps 760 mmHg 58%
    16:00 +14°C° 0.1 mm 5 mps 759 mmHg 66%
    17:00 +12°C° 0.1 mm 5 mps 759 mmHg 73%
    18:00 +10°C° 0 mm 5 mps 760 mmHg 71%
    19:00 +8°C° 0 mm 5 mps 760 mmHg 70%
    20:00 +6°C° 0 mm 4 mps 761 mmHg 69%
    21:00 +6°C° 0 mm 4 mps 761 mmHg 71%
    22:00 +6°C° 0 mm 5 mps 762 mmHg 72%
    23:00 +5°C° 0 mm 5 mps 763 mmHg 74%

    8 April, Wednesday

    Time Temperature Precipitation Wind Pressure Humidity
    00:00 +4°C° 0 mm 4 mps 763 mmHg 75%
    01:00 +4°C° 0 mm 4 mps 763 mmHg 75%
    02:00 +3°C° 0 mm 3 mps 764 mmHg 76%
    03:00 +2°C° 0 mm 3 mps 764 mmHg 78%
    04:00 +2°C° 0 mm 3 mps 764 mmHg 80%
    05:00 +2°C° 0 mm 2 mps 765 mmHg 81%
    06:00 +3°C° 0 mm 2 mps 765 mmHg 75%
    07:00 +5°C° 0 mm 2 mps 765 mmHg 68%
    08:00 +6°C° 0 mm 2 mps 765 mmHg 62%
    09:00 +8°C° 0 mm 3 mps 765 mmHg 56%
    10:00 +10°C° 0 mm 3 mps 764 mmHg 50%
    11:00 +12°C° 0 mm 4 mps 764 mmHg 43%
    12:00 +13°C° 0 mm 4 mps 763 mmHg 40%
    13:00 +13°C° 0 mm 5 mps 763 mmHg 37%
    14:00 +14°C° 0 mm 5 mps 762 mmHg 34%
    15:00 +14°C° 0 mm 5 mps 761 mmHg 36%
    16:00 +14°C° 0 mm 5 mps 761 mmHg 37%
    17:00 +13°C° 0 mm 5 mps 760 mmHg 38%
    18:00 +12°C° 0 mm 5 mps 760 mmHg 43%
    19:00 +10°C° 0 mm 4 mps 760 mmHg 49%
    20:00 +8°C° 0 mm 3 mps 759 mmHg 54%
    21:00 +7°C° 0 mm 4 mps 759 mmHg 57%
    22:00 +7°C° 0 mm 4 mps 759 mmHg 60%
    23:00 +6°C° 0 mm 4 mps 759 mmHg 64%
    Show more